HVDC transfer

From www.emi.ea.govt.nz provided by the Electricity Authority (New Zealand)
Run at: 20240503193129

Parameters
Date range,17 Mar 2019 - 17 Mar 2019
Time scale,Trading period
Show,Average flow (MW)

Period start,Period end,Trading period,Direction,Energy transfer (GWh),Peak flow (MW),Average flow (MW)
17/03/2019 00:00:00,17/03/2019 00:30:00,1,Northward at Haywards,0.041,81,81
17/03/2019 00:30:00,17/03/2019 01:00:00,2,Northward at Haywards,0.011,22,22
17/03/2019 01:00:00,17/03/2019 01:30:00,3,Northward at Haywards,0.020,39,39
17/03/2019 02:00:00,17/03/2019 02:30:00,5,Southward at Benmore,-0.011,-23,-23
17/03/2019 02:30:00,17/03/2019 03:00:00,6,Southward at Benmore,-0.011,-23,-23
17/03/2019 03:00:00,17/03/2019 03:30:00,7,Southward at Benmore,-0.043,-87,-87
17/03/2019 03:30:00,17/03/2019 04:00:00,8,Southward at Benmore,-0.040,-80,-80
17/03/2019 04:00:00,17/03/2019 04:30:00,9,Southward at Benmore,-0.040,-81,-81
17/03/2019 04:30:00,17/03/2019 05:00:00,10,Southward at Benmore,-0.043,-86,-86
17/03/2019 05:00:00,17/03/2019 05:30:00,11,Southward at Benmore,-0.011,-23,-23
17/03/2019 05:30:00,17/03/2019 06:00:00,12,Southward at Benmore,-0.002,-5,-5
17/03/2019 06:00:00,17/03/2019 06:30:00,13,Northward at Haywards,0.001,2,2
17/03/2019 06:30:00,17/03/2019 07:00:00,14,Northward at Haywards,0.046,91,91
17/03/2019 07:00:00,17/03/2019 07:30:00,15,Northward at Haywards,0.053,105,105
17/03/2019 07:30:00,17/03/2019 08:00:00,16,Northward at Haywards,0.069,137,137
17/03/2019 08:00:00,17/03/2019 08:30:00,17,Northward at Haywards,0.113,225,225
17/03/2019 08:30:00,17/03/2019 09:00:00,18,Northward at Haywards,0.137,274,274
17/03/2019 09:00:00,17/03/2019 09:30:00,19,Northward at Haywards,0.157,314,314
17/03/2019 09:30:00,17/03/2019 10:00:00,20,Northward at Haywards,0.131,261,261
17/03/2019 10:00:00,17/03/2019 10:30:00,21,Northward at Haywards,0.147,293,293
17/03/2019 10:30:00,17/03/2019 11:00:00,22,Northward at Haywards,0.151,302,302
17/03/2019 11:00:00,17/03/2019 11:30:00,23,Northward at Haywards,0.153,305,305
17/03/2019 11:30:00,17/03/2019 12:00:00,24,Northward at Haywards,0.166,332,332
17/03/2019 12:00:00,17/03/2019 12:30:00,25,Northward at Haywards,0.164,328,328
17/03/2019 12:30:00,17/03/2019 13:00:00,26,Northward at Haywards,0.154,308,308
17/03/2019 13:00:00,17/03/2019 13:30:00,27,Northward at Haywards,0.170,340,340
17/03/2019 13:30:00,17/03/2019 14:00:00,28,Northward at Haywards,0.170,339,339
17/03/2019 14:00:00,17/03/2019 14:30:00,29,Northward at Haywards,0.163,326,326
17/03/2019 14:30:00,17/03/2019 15:00:00,30,Northward at Haywards,0.120,239,239
17/03/2019 15:00:00,17/03/2019 15:30:00,31,Northward at Haywards,0.119,238,238
17/03/2019 15:30:00,17/03/2019 16:00:00,32,Northward at Haywards,0.107,214,214
17/03/2019 16:00:00,17/03/2019 16:30:00,33,Northward at Haywards,0.078,155,155
17/03/2019 16:30:00,17/03/2019 17:00:00,34,Northward at Haywards,0.091,181,181
17/03/2019 17:00:00,17/03/2019 17:30:00,35,Northward at Haywards,0.109,217,217
17/03/2019 17:30:00,17/03/2019 18:00:00,36,Northward at Haywards,0.121,242,242
17/03/2019 18:00:00,17/03/2019 18:30:00,37,Northward at Haywards,0.130,259,259
17/03/2019 18:30:00,17/03/2019 19:00:00,38,Northward at Haywards,0.121,241,241
17/03/2019 19:00:00,17/03/2019 19:30:00,39,Northward at Haywards,0.107,214,214
17/03/2019 19:30:00,17/03/2019 20:00:00,40,Northward at Haywards,0.107,213,213
17/03/2019 20:00:00,17/03/2019 20:30:00,41,Northward at Haywards,0.108,215,215
17/03/2019 20:30:00,17/03/2019 21:00:00,42,Northward at Haywards,0.092,183,183
17/03/2019 21:00:00,17/03/2019 21:30:00,43,Northward at Haywards,0.052,104,104
17/03/2019 21:30:00,17/03/2019 22:00:00,44,Northward at Haywards,0.063,126,126
17/03/2019 22:00:00,17/03/2019 22:30:00,45,Northward at Haywards,0.076,152,152
17/03/2019 22:30:00,17/03/2019 23:00:00,46,Northward at Haywards,0.064,128,128
17/03/2019 23:00:00,17/03/2019 23:30:00,47,Northward at Haywards,0.041,82,82
17/03/2019 23:30:00,18/03/2019 00:00:00,48,Northward at Haywards,0.051,102,102
